Погода в Сочи

Погода в Сочи : погода сейчас, прогноз погоды и архив. Всё, что Вы хотите узнать о погоде в Сочи!

Поиск расширенной информации на нашем сайте:

Другие новости

Новости СМИ2

Главная страница сайта

Новости сайта

03.07.2017

Напоминаем, что на нашем специализированном сайте Метеоцентр.Азия вы можете получить высокодетализированные автоматические прогнозы погоды по пунктам России, СНГ и мира в авиационном формате (включающие направление и скорость ветра, видимость, явления погоды, количество и форму облачности, нижнюю и верхнюю границу облачности).


Погода в Сочи - сегодня

Время (UTC), дата Ветер
(°,м/с) 
Видим.   Явления Облачность Т
(°С)
Тd
(°С)
f(%) Тe
(°С)
Pmin
(гПа)
dP
(гПа)
Po
(мм)
O2
(г/м3)
Тmin Tmax R s Состояние
почвы
06 19.09.17 060 (СВ) 20000 м    ясно 
+24.7 +16.4 60 +36  1013.4  0.7  759  277           
09 19.09.17 130 (ЮВ) 20000 м    ясно 
+28.6 +16.6 48 +40  1012.9  -0.5  758  273           
12 19.09.17 270 (З) 20000 м    ясно 
+28.2 +18.1 54 +42  1012  -0.9  758  273           
15 19.09.17 280 (З) 20000 м    ясно 
+26.2 +19 65 +42  1011  -1  757  274    +29.9       
18 19.09.17 040 (СВ) 4000 м    ясно 
+22.2 +19.4 84 +39  1011.1  0.1  757  277           
21 19.09.17 тихо ()   4000 м    ясно 
+19.9 +17.1 84 +32  1011.5  0.3  757  281           
00 20.09.17 050 (СВ) 4000 м    ясно 
+19.3 +15.1 77 +30  1011.4  -0.1  757  282           
03 20.09.17 070 (В) 20000 м    ясно 
+17.8 +12 69 +23  1011.1  -0.3  757  284  +17         
06 20.09.17 010 (С) 20000 м    ясно 
+26 +13 45 +31  1011.4  0.4  757  276           
09 20.09.17 290 (З) 20000 м    ясно 
+29.5 +16.2 45 +40  1011  -0.4  757  272           
12 20.09.17 280 (З) 20000 м    ясно 
+29.6 +17.4 48 +42  1010.6  -0.4  757  271           
15 20.09.17 290 (З) 20000 м    ясно 
+26.9 +19 62 +43  1009.5  -1.1  756  273    +32.7       
18 20.09.17 тихо ()   4000 м    ясно 
+22 +18.8 82 +38  1009.7  -0.2  756  278           
21 20.09.17 060 (СВ) 4000 м    ясно 
+20 +16.4 80 +31  1010.7  0.9  757  281           
00 21.09.17 060 (СВ) 4000 м    ясно 
+20.2 +14.4 69 +28  1010.9  0.2  757  281           
03 21.09.17 030 (СВ) 20000 м    ясно 
+19.2 +14.8 76 +28  1010.4  -0.5  756  282  +17.8         
06 21.09.17 090 (В) 20000 м    ясно 
+26.1 +15.4 52 +35  1009.8  -0.5  756  275           
09 21.09.17 270 (З) 20000 м    ясно 
+28.1 +18.3 55 +43  1008.7  -1.1  755  272           
12 21.09.17 280 (З) 20000 м    ясно 
+28.9 +17.2 49 +41  1007.1  -1.6  754  271           
15 21.09.17 290 (З) 20000 м    1/0 средняя 
[Ac trans]
+25.8 +22.2 81 +50  1005.8  -1.3  753  271    +29.7       
18 21.09.17 070 (В) 4000 м    ясно 
+22.7 +17.7 73 +36  1006.9  1.1  754  276           
21 21.09.17 070 (В) 4000 м    9/8 330 м средняя 
[St|Ac trans]
+22.3 +18.7 80 +38  1008  1.1  755  277           
00 22.09.17 060 (СВ) 4000 м    8/0 средняя 
[Ac trans]
+21.6 +17.7 78 +35  1007.2  -0.8  754  278           
03 22.09.17 060 (СВ) 20000 м    3/0 средняя 
[Ac trans]
+19.9 +15.3 75 +30  1007  -0.3  754  280  +19.9         
06 22.09.17 080 (В) 20000 м    9/0 средняя 
[Ac trans]
+24 +15 57 +33  1006.8  -0.1  754  276  +19.5         
Время (UTC), дата Ветер
(°,м/с) 
Видим.   Явления Облачность Т
(°С)
Тd
(°С)
f(%) Тe
(°С)
Pmin
(гПа)
dP
(гПа)
Po
(мм)
O2
(г/м3)
Тmin Tmax R s Состояние
почвы

Для получения пояснительной информации подведите курсор к названию столбца.

ПОГОДА в Сочи - архив

Всё, что Вы хотите узнать о погоде в Сочи - удобно и подробно!

Выберите нужную дату (начиная с 1 января 2015* года) и нажмите кнопку "Найти".
Будут отображены архивные сводки погоды по пункту Сочи, начиная с указанной даты.


Отображать данные в формате CSV (для использования в таблицах Excel)


Внимание! Наш архив погоды предназначен исключительно для личного некоммерческого использования в познавательных целях. Если Вам необходимы официальные справки о состоянии погоды (для производственных, юридических, коммерческих и т.п. целей), обращайтесь в органы Росгидромета.

*Примечание: данная дата относится к архиву по метеостанциям СССР (Россия, СНГ, Балтия).
Архив по метеостанциям Зарубежной Европы и Азии (кроме Китая) хранится 10 дней, по другим регионам земного шара (Китай, Африка, Америка, Австралия, Океания) - 1 день.

Сочи - район местоположения метеостанции


Название, широта, долгота, высота метеостанции:
Сочи (Адлер) 43.4°ш. 39.9°д. 13 м над ур. моря [Российская Федерация]

Дополнительная информация

В oтличие oт бoльшинства пoгoдных сайтoв мы публикуем пoдрoбную метеoинфoрмацию в детальнoм прoфессиoнальнoм фoрмате.

Характеристики температуры и влажнoсти вoздуха измеряются на высoте 2 м в тени вдали oт зданий и деревьев.
Скoрoсть ветра измеряется на высoте 10 м (на урoвне рoста челoвека скoрoсть ветра ниже в 1.5-2 раза). Если метеoстанция нахoдится в гoрoде или в лесу, тo скoрoсть ветра занижена на 2-4 м/с пo сравнению с oткрытым местoм. Скoрoсть ветра над акватoриями крупных рек и oзёр, а также на вершинах хoлмoв на 2-5 м/с выше, чем в oбычных услoвиях.
Атмoсфернoе давление в разных тoчках местнoсти мoжет значительнo oтличаться oт давления на метеoстанции, в зависимoсти oт услoвий рельефа (при пoдъёме на 10 м давление пoнижается примернo на 1 мм рт.ст.).